Tracking 28125 objects as of 4-Oct-2023
HD Live streaming from Space Station
objects crossing your sky now

STARLINK-4703

Track STARLINK-4703 now!
10-day predictions
STARLINK-4703 is classified as:


NORAD ID: 53855
Int'l Code: 2022-114AP
Perigee: 545.6 km
Apogee: 548.0 km
Inclination: 53.2 °
Period: 95.4 minutes
Semi major axis: 6917 km
RCS: Unknown
Launch date: September 19, 2022
Source: United States (US)
Launch site: AIR FORCE EASTERN TEST RANGE (AFETR)
Your satellite tracking list
Your tracking list is empty




NASA's NSSDC Master Catalog

Two Line Element Set (TLE):
1 53855U 22114AP  23277.32727091  .00013943  00000-0  89189-3 0  9996
2 53855  53.2158 317.3889 0001773  83.3511 276.7682 15.08861348 58476
Source of the keplerian elements: AFSPC